星链-5934 (STARLINK-5934 )

导读

STARLINK-5934是美国太空探索技术公司(SpaceX)“星链”卫星互联网项目的组网卫星,于2023年3月24日发射入轨,属于星链星座扩容任务的一部分。它将在近地轨道运行,为全球除偏远地区外的用户提供高速低延迟的卫星互联网接入服务,进一步完善星链全球覆盖网络。

Basic Information
目录编号:
56017
目录名称:
STARLINK-5934
国际标识:
2023-042AH
轨道中心:
EARTH
卫星名称:
星链-5934
卫星全名:
星链-5934 (STARLINK-5934 )
卫星状态:
在轨 (已飞行1267 天)
发射日期:
2023-03-24 UTC
国别 :
美国 (US)
星等 :
--
This satellite is enrolled in the Space Conjunction Data Service (SCDS) and the current flight risk assessment level is: No High Risk
Orbit Information
数据来源 国际轨道数据
星历时间: 2026-09-11T04:39:00+0800
21小时前
查看轨道信息
半长轴: 6861.195km
偏心率: 0.0001738
轨道倾角: 43.003°
近地点辐角 256.131°
升交点赤经 79.592°
平近点角 103.935°
近地点: 481.865km
远地点: 484.251km
周期: 94.267分钟
每日圈数: 15.275772
Detailed Information
固有亮度:
5
最大亮度:
2.5
卫星平台:
Starlink v1.5
覆盖范围:
全球
运营商:
太空探索技术公司
运营商所在国:
美国
制造商(研发单位):
太空探索技术公司
制造商所在国:
美国
使用方式:
暂无
Satellite Introduction
星链(Starlink)计划是由太空探索技术公司(SpaceX)提出的一个巨型低轨卫星互联网星座项目,计划在2019年至2024年间在太空搭建由约1.2万颗卫星组成的“星链”网络,其中1584颗将部署在地球上空550千米处的近地轨道,并从2020年开始工作。该卫星仍在工作。
2D Orbit Map
3D Orbit Map
Orbit Altitude Analysis Chart
Orbit Inclination Analysis Chart
Orbit Comprehensive Analysis Chart
View Comprehensive Chart
Conjunction Data List
Event ID Objects TCA Miss Dist (km) Collision Risk Probability Collision Risk Index (CRI) Action
CDM_260912-173005-601706-356321
2026-09-12T
17:30:11+0000
0.969 km
远距离
2.22735E-5 中风险 0.62
CDM_260912-134605-601706-365821
2026-09-12T
13:46:41+0000
1.097 km
极远距离
7.334637E-6 低风险 0.52
CDM_260913-051705-601706-653121
2026-09-13T
05:17:28+0000
1.377 km
极远距离
6.510605E-6 低风险 0.51
CDM_260913-082705-601706-250721
2026-09-13T
08:27:31+0000
1.381 km
极远距离
6.19692E-6 低风险 0.51
CDM_260912-054405-601706-356321
2026-09-12T
05:44:02+0000
1.525 km
极远距离
4.746001E-6 低风险 0.49
CDM_260913-122105-601706-653121
2026-09-13T
12:21:09+0000
1.765 km
极远距离
2.991129E-6 低风险 0.45
CDM_260912-142905-601706-960621
2026-09-12T
14:29:50+0000
2.158 km
极远距离
1.653063E-6 低风险 0.39
CDM_260913-185204-267005-601721
2026-09-13T
18:52:53+0000
2.547 km
极远距离
1.468791E-6 低风险 0.38
CDM_260912-190405-601706-356322
2026-09-12T
19:04:20+0000
2.427 km
极远距离
1.433781E-6 低风险 0.38
CDM_260913-135505-601706-653121
2026-09-13T
13:55:18+0000
2.556 km
极远距离
1.289103E-6 低风险 0.37
Miss Distance Evolution Trend with All Objects
Collision Probability Evolution Trend with All Objects